Regional Weather Roundup
Issued by NWS Upton, NY

Current Version | Previous Version | Graphics & Text | Print | Product List | Glossary Off
Versions: 1 2 3 4 5 6 7 8 9 10 11 12 13 14 15 16 17 18 19 20 21 22 23 24 25 26 27 28 29 30 31 32 33 34 35 36 37 38 39 40 41 42 43 44 45 46 47 48 49 50

000
ASUS41 KOKX 182305
RWROKX

REGIONAL WEATHER ROUNDUP
NATIONAL WEATHER SERVICE NEW YORK NY
600 PM EST THU DEC 18 2014

NOTE: "FAIR" INDICATES FEW OR NO CLOUDS BELOW 12,000 FEET WITH NO
SIGNIFICANT WEATHER AND/OR OBSTRUCTIONS TO VISIBILITY.

NYZ071-072-176-178-NJZ106-104-190000-
NEW YORK CITY METRO AREA


CITY           SKY/WX    TMP DP  RH WIND       PRES   REMARKS
CENTRAL PARK   CLOUDY    40  24  53 NW9G17    29.99S WCI  34
LAGUARDIA APRT MOCLDY    39  26  59 NW16G22   29.96S WCI  30
KENNEDY INTL   PTCLDY    40  24  53 NW14G21   29.97S WCI  32
NEWARK/LIBERTY MOCLDY    39  26  59 NW16G26   29.98F WCI  30
BRNX BOT. GARD   N/A    N/A N/A N/A N21       29.98F
TETERBORO      CLOUDY    39  26  59 NW15G21   29.96F WCI  31
$$

NYZ177-179-078>081-190000-
LONG ISLAND NEW YORK

CITY           SKY/WX    TMP DP  RH WIND       PRES   REMARKS
FARMINGDALE    PTCLDY    39  25  57 NW12G22   29.95S WCI  32
ISLIP          PTCLDY    38  26  62 NW15G22   29.92F WCI  29
SHIRLEY        CLEAR     38  26  62 NW12      29.93F WCI  30
WESTHAMPTON    CLEAR     38  25  59 W9        29.93S WCI  31
MONTAUK POINT    N/A     42  29  59 NW14G23   29.91R
$$

NYZ052-065-067-190000-
HUDSON VALLEY

CITY           SKY/WX    TMP DP  RH WIND       PRES   REMARKS
WHITE PLAINS   MOCLDY    36  26  67 NW14G26   29.92F WCI  27
NEWBURGH       PTCLDY    36  28  75 NW21      29.95F WCI  24
MONTGOMERY     CLOUDY    37  27  67 W8        29.96S WCI  31
POUGHKEEPSIE   CLOUDY    38  25  59 NW8       29.95S WCI  32
ALBANY         CLOUDY    35  26  69 NW14G23   29.95R WCI  26
$$

NJZ001-105-106-008-010-013-015-019>022-104-190000-
NEW JERSEY

CITY           SKY/WX    TMP DP  RH WIND       PRES   REMARKS
NEWARK/LIBERTY MOCLDY    39  26  59 NW16G26   29.98F WCI  30
TETERBORO      CLOUDY    39  26  59 NW15G21   29.96F WCI  31
CALDWELL       CLOUDY    38  25  59 NW8G23    29.98S WCI  32
MORRISTOWN     MOCLDY    39  27  60 MISG      29.99S
SOMERVILLE     CLOUDY    39  25  57 NW7       29.97S WCI  34
SUSSEX         CLOUDY    36  26  67 NW3       29.97F
ANDOVER          N/A     36  26  67 VRB5      29.97F WCI  32
TRENTON        CLOUDY    36  23  59 W7        30.00R WCI  30
MILLVILLE      CLEAR     35  24  64 NW9       30.04S WCI  28
ATLANTIC CITY  FAIR      35  24  64 W8        30.02R WCI  29
WRIGHTSTOWN    PTCLDY    35  24  65 W8        29.98S WCI  29
TOMS RIVER     CLEAR     36  25  64 W8        29.99F WCI  29
BELMAR         CLEAR     37  21  52 W8        29.97S WCI  31
$$

PAZ047>061-062-071-190000-
EASTERN PENNSYLVANIA

CITY           SKY/WX    TMP DP  RH WIND       PRES   REMARKS
PHILADELPHIA   MOCLDY    38  23  55 W12       30.05S WCI  30
ALLENTOWN      CLOUDY    36  24  62 W10       30.01S WCI  28
SCRANTON       CLOUDY    35  26  69 NW10      29.99F WCI  27
$$

CTZ002-004>006-009-010-012-RIZ004-006-007-MAZ004-011-015-190000-
SOUTHERN NEW ENGLAND
 IN CT

CITY           SKY/WX    TMP DP  RH WIND       PRES   REMARKS
BRADLEY INTL   MOCLDY    37  25  61 NW14G20   29.90R WCI  28
HARTFORD       CLOUDY    39  26  59 VRB7      29.92S WCI  34
DANBURY        PTCLDY    36  23  59 W7        29.93F WCI  30
WTRBRY/OXFORD  PTCLDY    36  23  60 NW8       29.90S WCI  29
BRIDGEPORT     CLEAR     39  27  62 W8        29.93S WCI  33
MERIDEN        CLEAR     37  26  64 N5        29.91F WCI  33
NEW HAVEN      MOCLDY    43  27  53 W7G17     29.92R
CHESTER        FAIR      37  28  70 NW7G16    29.90S WCI  32
GROTON         MOCLDY    37  28  70 NW7       29.90R WCI  32
WILLIMANTIC    CLOUDY    38  26  62 VRB7      29.90R WCI  33

 IN RI

CITY           SKY/WX    TMP DP  RH WIND       PRES   REMARKS
PROVIDENCE     CLOUDY    38  26  62 W12       29.87R WCI  30
BLOCK ISLAND   MOCLDY    39  27  60 NW13G21   29.89R WCI  32
WESTERLY       MOCLDY    39  27  62 W7        29.90R WCI  34

 IN MA

CITY           SKY/WX    TMP DP  RH WIND       PRES   REMARKS
BOSTON         PTCLDY    41  28  60 W12       29.83R
WORCESTER      CLOUDY    34  26  72 W10       29.82R WCI  26
WESTFIELD      CLOUDY    37  25  61 W15       29.89S WCI  28
PROVINCETOWN   CLOUDY    43  28  56 W20G25    29.81R
NANTUCKET      CLOUDY    40  29  64 W14       29.84R WCI  32
$$

ANZ330-335-338-340-345-350-353-355-190000-
COASTAL MARINE OBSERVATIONS


STATION/POSITION TIME  SKY/WX   TEMP    WIND        PRES    VSBY  WAVE
                                AIR SEA DIR/SP/G                  HT/PER
                 (UTC)          (F)     (DEG/KT/KT) (MB)    (MI)  (FT/S)
NY HARB ENTRANCE 2300            41 47  310/ 21/ 27 1014.2          4/ 4
4S FIRE IS       2300               46                N/A           4/ 5
20S FIRE ISLAND  2200            42 49              1013.8          5/ 5
23SW MTP         2300                                 N/A           5/ 6
HUDSON CANYON    2300            43 55  300/ 19/ 25 1014.1          7/ 7
EXECUTION ROCKS  2300            40 42  290/ 16/ 21   N/A
WESTERN LI SOUND 2300            40     300/ 16/ 21   N/A           2/ 3
CENTRAL LI SOUND 2200            42 45  290/ 16/ 19   N/A           2/ 5
EASTERN LI SOUND NOT AVBL
ROBBINS REEF     2300            39     340/ 13/ 18 1013.7
$$


>>>>>>>>>>>>>>>>>>>>>>>>>>>> KEY <<<<<<<<<<<<<<<<<<<<<<<<<<<
>                                                          <
>     SKY/WX - SKY CONDITION/PRESENT WEATHER               <
>     TMP    - TEMPERATURE IN FAHRENHEIT                   <
>     DP     - DEWPOINT IN FAHRENHEIT                      <
>     RH     - RELATIVE HUMIDITY IN PERCENT                <
>     WIND   - DIRECTION AND SPEED IN MPH                  <
>     PRES   - MEAN SEA LEVEL PRESSURE IN INCHES OF HG     <
>     WCI    - WIND CHILL INDEX                            <
>     VSB    - VISIBILITY IN MILES                         <
>     HX     - HEAT INDEX                                  <
>     TC     - TEMPERATURE IN CELSIUS                      <
>     VRB    - VARIABLE WIND DIRECTION                     <
>                                                          <
>>>>>>>>>>>>>>>>>>>>>>>>>>>> KEY <<<<<<<<<<<<<<<<<<<<<<<<<<<





USA.gov is the U.S. government's official web portal to all federal, state and local government web resources and services.